Location: SBMNH
(34.4407°N, 119.7157°W)
Time: 15:26:54
(UTC-07:00)

Tiangong - Pass Details

Date: 19 August 2022
Orbit: 382 x 385 km, 41.5° (Epoch: 07 October)

Event Time Altitude Azimuth Distance (km) Brightness Sun altitude
Rises 21:00:19 0° 283° (WNW) 2,254 3.3 -15.9°
Reaches altitude 10° 21:02:39 10° 299° (WNW) 1,404 2.1 -16.3°
Maximum altitude 21:05:15 23° 354° (N) 876 0.0 -16.8°
Enters shadow 21:07:17 13° 42° (NE) 1,226 0.3 -17.2°
